TimeCST,TemperatureF,Dew PointF,Humidity,Sea Level PressureIn,VisibilityMPH,Wind Direction,Wind SpeedMPH,Gust SpeedMPH,PrecipitationIn,Events,Conditions,WindDirDegrees,DateUTC
12:15 AM,50.0,48.2,94,29.81,10.0,South,11.5,-,N/A,,Overcast,180,2013-01-11 06:15:00
12:35 AM,50.0,48.2,94,29.80,10.0,South,11.5,-,N/A,,Overcast,190,2013-01-11 06:35:00
12:55 AM,50.0,48.2,94,29.80,7.0,SSW,11.5,-,N/A,,Overcast,200,2013-01-11 06:55:00
1:15 AM,50.0,48.2,94,29.79,10.0,SSW,11.5,-,N/A,,Overcast,200,2013-01-11 07:15:00
1:35 AM,50.0,48.2,94,29.80,7.0,SSW,12.7,-,N/A,,Overcast,200,2013-01-11 07:35:00
1:55 AM,50.0,48.2,94,29.80,10.0,SSW,11.5,-,N/A,,Overcast,200,2013-01-11 07:55:00
2:15 AM,50.0,48.2,94,29.80,10.0,South,9.2,-,N/A,,Overcast,190,2013-01-11 08:15:00
2:35 AM,48.2,46.4,93,29.80,10.0,South,9.2,-,N/A,,Scattered Clouds,180,2013-01-11 08:35:00
2:55 AM,46.4,46.4,100,29.79,10.0,South,9.2,-,N/A,,Scattered Clouds,180,2013-01-11 08:55:00
3:15 AM,46.4,46.4,100,29.78,10.0,South,12.7,-,N/A,,Scattered Clouds,170,2013-01-11 09:15:00
3:35 AM,46.4,46.4,100,29.78,10.0,South,16.1,-,N/A,,Scattered Clouds,180,2013-01-11 09:35:00
3:55 AM,48.2,46.4,93,29.78,10.0,South,15.0,21.9,N/A,,Overcast,180,2013-01-11 09:55:00
4:15 AM,46.4,44.6,93,29.75,10.0,South,16.1,-,N/A,,Overcast,170,2013-01-11 10:15:00
4:35 AM,46.4,44.6,93,29.75,10.0,South,17.3,-,N/A,,Mostly Cloudy,170,2013-01-11 10:35:00
4:55 AM,46.4,44.6,93,29.75,10.0,South,13.8,20.7,N/A,,Scattered Clouds,180,2013-01-11 10:55:00
5:15 AM,46.4,44.6,93,29.74,10.0,South,16.1,23.0,N/A,,Scattered Clouds,180,2013-01-11 11:15:00
5:35 AM,44.6,42.8,93,29.74,10.0,South,17.3,20.7,N/A,,Scattered Clouds,180,2013-01-11 11:35:00
5:55 AM,44.6,42.8,93,29.74,10.0,South,16.1,24.2,N/A,,Scattered Clouds,180,2013-01-11 11:55:00
6:15 AM,44.6,42.8,93,29.72,10.0,South,18.4,26.5,N/A,,Scattered Clouds,170,2013-01-11 12:15:00
6:35 AM,44.6,42.8,93,29.72,10.0,South,18.4,-,N/A,,Scattered Clouds,180,2013-01-11 12:35:00
6:55 AM,44.6,42.8,93,29.71,10.0,South,18.4,26.5,N/A,,Clear,180,2013-01-11 12:55:00
7:15 AM,44.6,42.8,93,29.73,10.0,South,15.0,18.4,N/A,,Clear,180,2013-01-11 13:15:00
7:35 AM,44.6,42.8,93,29.73,10.0,South,16.1,24.2,N/A,,Clear,180,2013-01-11 13:35:00
7:55 AM,44.6,42.8,93,29.73,10.0,South,16.1,-,N/A,,Clear,190,2013-01-11 13:55:00
8:15 AM,44.6,42.8,93,29.73,10.0,South,18.4,-,N/A,,Clear,180,2013-01-11 14:15:00
8:35 AM,46.4,42.8,87,29.73,10.0,South,17.3,23.0,N/A,,Clear,190,2013-01-11 14:35:00
8:55 AM,46.4,42.8,87,29.75,10.0,South,16.1,-,N/A,,Clear,190,2013-01-11 14:55:00
9:15 AM,48.2,44.6,87,29.76,10.0,South,13.8,19.6,N/A,,Clear,190,2013-01-11 15:15:00
9:35 AM,50.0,44.6,82,29.75,10.0,South,17.3,-,N/A,,Clear,190,2013-01-11 15:35:00
9:55 AM,51.8,44.6,76,29.75,10.0,South,16.1,24.2,N/A,,Clear,180,2013-01-11 15:55:00
10:15 AM,51.8,44.6,76,29.75,10.0,SSW,19.6,25.3,N/A,,Clear,200,2013-01-11 16:15:00
10:35 AM,53.6,46.4,77,29.75,10.0,South,18.4,24.2,N/A,,Clear,190,2013-01-11 16:35:00
10:55 AM,53.6,46.4,77,29.73,10.0,South,25.3,29.9,N/A,,Clear,190,2013-01-11 16:55:00
11:15 AM,53.6,44.6,72,29.73,10.0,South,20.7,26.5,N/A,,Clear,190,2013-01-11 17:15:00
11:35 AM,53.6,44.6,72,29.72,10.0,South,17.3,23.0,N/A,,Clear,190,2013-01-11 17:35:00
11:55 AM,53.6,46.4,77,29.71,10.0,South,18.4,27.6,N/A,,Clear,190,2013-01-11 17:55:00
12:15 PM,53.6,44.6,72,29.70,10.0,South,17.3,25.3,N/A,,Clear,190,2013-01-11 18:15:00
12:35 PM,59.0,46.4,63,29.68,10.0,SSW,21.9,28.8,N/A,,Clear,200,2013-01-11 18:35:00
12:55 PM,59.0,44.6,59,29.66,10.0,South,19.6,25.3,N/A,,Clear,190,2013-01-11 18:55:00
1:15 PM,59.0,44.6,59,29.65,10.0,SSW,16.1,28.8,N/A,,Clear,200,2013-01-11 19:15:00
1:55 PM,59.0,44.6,59,29.65,10.0,SSW,17.3,24.2,N/A,,Clear,200,2013-01-11 19:55:00
2:15 PM,59.0,44.6,59,29.65,10.0,South,17.3,27.6,N/A,,Clear,190,2013-01-11 20:15:00
2:35 PM,59.0,44.6,59,29.65,10.0,South,18.4,24.2,N/A,,Clear,180,2013-01-11 20:35:00
2:55 PM,59.0,44.6,59,29.65,10.0,South,19.6,25.3,N/A,,Clear,190,2013-01-11 20:55:00
3:15 PM,62.6,44.6,52,29.64,10.0,South,18.4,24.2,N/A,,Clear,180,2013-01-11 21:15:00
3:35 PM,62.6,44.6,52,29.64,10.0,South,18.4,25.3,N/A,,Clear,190,2013-01-11 21:35:00
3:55 PM,62.6,44.6,52,29.64,10.0,South,19.6,24.2,N/A,,Clear,180,2013-01-11 21:55:00
4:15 PM,62.6,44.6,52,29.64,10.0,South,17.3,24.2,N/A,,Clear,190,2013-01-11 22:15:00
4:35 PM,62.6,44.6,52,29.65,10.0,South,17.3,24.2,N/A,,Clear,180,2013-01-11 22:35:00
4:55 PM,60.8,44.6,55,29.65,10.0,South,17.3,21.9,N/A,,Clear,190,2013-01-11 22:55:00
5:15 PM,60.8,44.6,55,29.65,10.0,South,16.1,-,N/A,,Clear,180,2013-01-11 23:15:00
5:35 PM,60.8,44.6,55,29.65,10.0,South,13.8,-,N/A,,Clear,180,2013-01-11 23:35:00
5:55 PM,60.8,44.6,55,29.65,10.0,South,12.7,-,N/A,,Clear,190,2013-01-11 23:55:00
6:15 PM,60.8,44.6,55,29.66,10.0,South,15.0,-,N/A,,Clear,190,2013-01-12 00:15:00
6:35 PM,60.8,44.6,55,29.66,10.0,South,16.1,-,N/A,,Clear,190,2013-01-12 00:35:00
6:55 PM,60.8,44.6,55,29.67,10.0,South,16.1,-,N/A,,Clear,190,2013-01-12 00:55:00
7:15 PM,60.8,44.6,55,29.67,10.0,South,18.4,25.3,N/A,,Clear,190,2013-01-12 01:15:00
7:35 PM,60.8,44.6,55,29.68,10.0,South,13.8,-,N/A,,Clear,190,2013-01-12 01:35:00
7:55 PM,60.8,44.6,55,29.69,10.0,South,15.0,-,N/A,,Clear,190,2013-01-12 01:55:00
8:15 PM,60.8,44.6,55,29.69,10.0,South,17.3,-,N/A,,Clear,190,2013-01-12 02:15:00
8:35 PM,59.0,44.6,59,29.70,10.0,South,16.1,-,N/A,,Clear,190,2013-01-12 02:35:00
8:55 PM,59.0,44.6,59,29.71,10.0,South,15.0,-,N/A,,Clear,190,2013-01-12 02:55:00
9:15 PM,59.0,44.6,59,29.71,10.0,South,16.1,-,N/A,,Clear,190,2013-01-12 03:15:00
9:35 PM,59.0,44.6,59,29.71,10.0,South,15.0,-,N/A,,Clear,190,2013-01-12 03:35:00
9:55 PM,57.2,44.6,63,29.72,10.0,South,15.0,-,N/A,,Clear,190,2013-01-12 03:55:00
10:15 PM,57.2,46.4,67,29.75,10.0,WSW,12.7,-,N/A,,Scattered Clouds,240,2013-01-12 04:15:00
10:35 PM,59.0,46.4,63,29.77,10.0,SW,12.7,-,N/A,,Mostly Cloudy,230,2013-01-12 04:35:00
10:55 PM,59.0,46.4,63,29.78,10.0,SW,10.4,-,N/A,,Overcast,230,2013-01-12 04:55:00
11:15 PM,59.0,46.4,63,29.78,10.0,WSW,9.2,-,N/A,,Mostly Cloudy,250,2013-01-12 05:15:00
11:35 PM,59.0,39.2,48,29.79,10.0,West,12.7,19.6,N/A,,Clear,260,2013-01-12 05:35:00
11:55 PM,59.0,28.4,31,29.80,10.0,West,12.7,18.4,N/A,,Mostly Cloudy,260,2013-01-12 05:55:00